Marathon, Florida Weather Center

Moon Phase Calendar



Online Cameras

 


      

Current Conditions in Marathon
3/1/2021 2:07:10 PM

81°F
Feels Like 83
Clear
Humidity
69%
Pressure
30.06"
Wind
10.4 mph (SSE)
Dew Point
70°F
UV Index
8/10 (Very High)
Visibility
6 mi

Hourly Forecast

Date & Time Mon, Mar 1
2:00 PM
Mon, Mar 1
3:00 PM
Mon, Mar 1
4:00 PM
Mon, Mar 1
5:00 PM
Mon, Mar 1
6:00 PM
Mon, Mar 1
7:00 PM
Mon, Mar 1
8:00 PM
Mon, Mar 1
9:00 PM
Mon, Mar 1
10:00 PM
Mon, Mar 1
11:00 PM
Tue, Mar 2
12:00 AM
Tue, Mar 2
1:00 AM
Tue, Mar 2
2:00 AM
Tue, Mar 2
3:00 AM
Tue, Mar 2
4:00 AM
Tue, Mar 2
5:00 AM
Tue, Mar 2
6:00 AM
Tue, Mar 2
7:00 AM
Tue, Mar 2
8:00 AM
Tue, Mar 2
9:00 AM
Tue, Mar 2
10:00 AM
Tue, Mar 2
11:00 AM
Tue, Mar 2
12:00 PM
Tue, Mar 2
1:00 PM
Tue, Mar 2
2:00 PM
Tue, Mar 2
3:00 PM
Tue, Mar 2
4:00 PM
Tue, Mar 2
5:00 PM
Tue, Mar 2
6:00 PM
Tue, Mar 2
7:00 PM
Tue, Mar 2
8:00 PM
Tue, Mar 2
9:00 PM
Tue, Mar 2
10:00 PM
Tue, Mar 2
11:00 PM
Wed, Mar 3
12:00 AM
Wed, Mar 3
1:00 AM
Wed, Mar 3
2:00 AM
Wed, Mar 3
3:00 AM
Wed, Mar 3
4:00 AM
Wed, Mar 3
5:00 AM
Wed, Mar 3
6:00 AM
Wed, Mar 3
7:00 AM
Wed, Mar 3
8:00 AM
Wed, Mar 3
9:00 AM
Wed, Mar 3
10:00 AM
Wed, Mar 3
11:00 AM
Wed, Mar 3
12:00 PM
Wed, Mar 3
1:00 PM
Condition
Clear

Clear

Clear

Clear

Clear

Clear

Clear

Clear

Clear

Clear

Clear

Clear

Clear

Clouds

Clear

Clouds

Clouds

Clouds

Clouds

Clouds

Clouds

Clouds

Clouds

Clouds

Clear

Clear

Clear

Clear

Clear

Clouds

Clear

Clear

Clear

Clear

Clear

Clear

Clear

Clouds

Clouds

Clouds

Clouds

Clouds

Clear

Clear

Clear

Clear

Clear

Clear
Temperature 81°F79°F78°F78°F77°F77°F77°F76°F76°F76°F76°F76°F76°F76°F76°F75°F75°F75°F75°F76°F76°F76°F76°F76°F76°F76°F76°F76°F76°F76°F76°F76°F76°F76°F76°F76°F75°F75°F75°F75°F75°F75°F76°F76°F76°F76°F76°F76°F
Feels Like 82°F82°F81°F79°F79°F78°F78°F78°F77°F77°F77°F77°F77°F76°F75°F75°F76°F77°F77°F76°F76°F76°F76°F76°F77°F78°F77°F77°F77°F78°F77°F76°F77°F77°F78°F76°F76°F76°F76°F76°F76°F75°F75°F77°F78°F78°F77°F77°F
Cloudiness 1%1%0%0%0%0%0%0%0%0%1%3%0%12%10%31%25%24%40%23%44%35%29%24%0%4%5%6%5%14%9%5%4%2%2%2%0%34%26%20%16%14%0%0%0%0%0%0%
Visibility 6 mi6 mi6 mi6 mi6 mi6 mi6 mi6 mi6 mi6 mi6 mi6 mi6 mi6 mi6 mi6 mi6 mi6 mi6 mi6 mi6 mi6 mi6 mi6 mi6 mi6 mi6 mi6 mi6 mi6 mi6 mi6 mi6 mi6 mi6 mi6 mi6 mi6 mi6 mi6 mi6 mi6 mi6 mi6 mi6 mi6 mi6 mi6 mi
Precipitation 0%0%0%0%0%0%0%0%0%0%0%0%0%0%0%0%0%0%0%0%0%0%0%0%0%0%0%0%0%0%0%0%0%0%0%0%0%0%0%0%0%0%0%0%0%0%0%0%
Humidity 69%74%77%79%80%81%82%83%83%83%82%81%81%81%81%82%81%81%81%80%80%79%78%78%77%77%76%75%76%77%78%78%78%78%79%79%79%79%80%79%79%79%79%80%80%80%81%81%
Dew Point 70°F70°F70°F70°F70°F71°F71°F71°F71°F71°F71°F70°F70°F70°F70°F70°F69°F69°F69°F69°F69°F69°F69°F69°F69°F68°F68°F68°F68°F69°F69°F69°F68°F68°F69°F69°F68°F68°F69°F68°F68°F69°F69°F69°F70°F70°F70°F70°F
Pressure 30.06"30.06"30"30.03"30.03"30.03"30.06"30.09"30.09"30.09"30.06"30.06"30.06"30.03"30.03"30.03"30.03"30.06"30.06"30.09"30.09"30.09"30.09"30.06"30.03"30"30"30"30"30"30.03"30.03"30.03"30.03"30.03"30.03"30"29.97"29.97"29.97"29.97"30"30.03"30.03"30.03"30.03"30.03"30"
Wind Speed 11 mph8.9 mph8.8 mph10.7 mph11 mph11 mph12.2 mph12.6 mph12.8 mph12.8 mph12.6 mph12.8 mph12.7 mph13.2 mph14 mph14.6 mph11.9 mph10.3 mph10.3 mph11.3 mph12.1 mph12.5 mph12.9 mph12 mph10.4 mph9.5 mph9.7 mph10.5 mph10.2 mph8.9 mph10 mph11.5 mph10.4 mph9.1 mph9.2 mph10.8 mph10.1 mph10.9 mph11.1 mph10.9 mph11.2 mph12.6 mph13.5 mph12 mph9.7 mph10.3 mph11.3 mph11.3 mph
Wind
Direction
129°
SE
132°
SE
130°
SE
121°
ESE
103°
ESE
84°
E
82°
E
87°
E
102°
ESE
116°
ESE
117°
ESE
115°
ESE
111°
ESE
114°
ESE
122°
ESE
128°
SE
126°
SE
123°
ESE
126°
SE
129°
SE
128°
SE
131°
SE
136°
SE
132°
SE
129°
SE
132°
SE
138°
SE
141°
SE
138°
SE
125°
SE
116°
ESE
113°
ESE
106°
ESE
119°
ESE
139°
SE
148°
SSE
153°
SSE
155°
SSE
161°
SSE
167°
SSE
170°
S
171°
S
175°
S
183°
S
195°
SSW
197°
SSW
201°
SSW
208°
SSW

Daily Forecast

Date High Low Precip. Humidity
Today
Mar 1

Clouds
81 °F
76 °F
0%
80%
Tuesday
Mar 2

Clouds
76 °F
75 °F
0%
78%
Wednesday
Mar 3

Clear
76 °F
75 °F
0%
81%
Thursday
Mar 4

Clouds
72 °F
69 °F
5%
74%
Friday
Mar 5

Rain
74 °F
69 °F
35%
62%
Saturday
Mar 6

Rain
76 °F
73 °F
92%
75%
Sunday
Mar 7

Rain
75 °F
66 °F
92%
61%
Monday
Mar 8

Rain
73 °F
72 °F
72%
69%
Tuesday
Mar 9

Rain
73 °F
72 °F
60%
73%
Wednesday
Mar 10

Rain
74 °F
72 °F
56%
71%
Thursday
Mar 11

Rain
77 °F
75 °F
73%
79%
Friday
Mar 12

Rain
77 °F
76 °F
88%
82%
Saturday
Mar 13

Rain
78 °F
77 °F
80%
81%
Sunday
Mar 14

Rain
78 °F
77 °F
57%
84%
Monday
Mar 15

Rain
78 °F
77 °F
32%
82%
Tuesday
Mar 16

Rain
77 °F
77 °F
51%
84%


Temperature 8-14 Day Outlook



Precipitation 8-14 Day Outlook




Quick Links
Marathon, Florida News
Marathon, Florida Photos
Marathon, Florida Videos




About Us
Contact Us
Site Map
Search Site
Advertise With Us
   
Marathon.CoastalTown.com
THE MARATHON, FLORIDA WEBSITE

Copyright 2021, Coastal Town
Privacy    |    Legal